| time (UTC) | temp F | wind direction | speed MPH | gust MPH | rain 1hr in | rain 24hr in | rain mn in | humidity % | barometer mb |
| 20260903200103 | 92 | 88 | 7.0 | 15.0 | 0.00 | 0.00 | 0.00 | 61 | 1010.3 |
| 20260903194557 | 89 | 130 | 6.0 | 12.0 | 0.00 | 0.00 | 0.00 | 65 | 1010.4 |
| 20260903193054 | 89 | 187 | 7.0 | 16.0 | 0.00 | 0.00 | 0.00 | 65 | 1010.7 |
| 20260903191601 | 89 | 198 | 7.0 | 14.0 | 0.00 | 0.00 | 0.00 | 66 | 1011.1 |
| 20260903190053 | 88 | 137 | 7.0 | 14.0 | 0.00 | 0.00 | 0.00 | 68 | 1011.4 |
| 20260903184601 | 87 | 194 | 4.0 | 13.0 | 0.00 | 0.00 | 0.00 | 68 | 1011.7 |
| 20260903183100 | 88 | 119 | 6.0 | 12.0 | 0.00 | 0.00 | 0.00 | 67 | 1011.7 |
| 20260903181553 | 87 | 121 | 6.0 | 15.0 | 0.00 | 0.00 | 0.00 | 69 | 1011.9 |
| 20260903180053 | 88 | 127 | 6.0 | 16.0 | 0.00 | 0.00 | 0.00 | 67 | 1012.1 |
| 20260903174600 | 87 | 157 | 7.0 | 17.0 | 0.00 | 0.00 | 0.00 | 68 | 1012.2 |
| 20260903173100 | 87 | 105 | 6.0 | 15.0 | 0.00 | 0.00 | 0.00 | 68 | 1012.5 |
| 20260903171558 | 87 | 227 | 6.0 | 13.0 | 0.00 | 0.00 | 0.00 | 67 | 1012.6 |
| 20260903170100 | 86 | 136 | 8.0 | 15.0 | 0.00 | 0.00 | 0.00 | 68 | 1012.7 |
| 20260903164559 | 87 | 99 | 5.0 | 13.0 | 0.00 | 0.00 | 0.00 | 68 | 1012.6 |
| 20260903163102 | 86 | 152 | 5.0 | 12.0 | 0.00 | 0.00 | 0.00 | 70 | 1012.4 |
| 20260903161602 | 86 | 57 | 5.0 | 12.0 | 0.00 | 0.00 | 0.00 | 71 | 1012.5 |
| 20260903160111 | 85 | 122 | 5.0 | 13.0 | 0.00 | 0.00 | 0.00 | 72 | 1012.4 |
| 20260903154603 | 84 | 179 | 4.0 | 9.0 | 0.00 | 0.00 | 0.00 | 73 | 1012.3 |
| 20260903153056 | 84 | 128 | 3.0 | 10.0 | 0.00 | 0.00 | 0.00 | 73 | 1012.2 |
| 20260903151556 | 83 | 126 | 5.0 | 10.0 | 0.00 | 0.00 | 0.00 | 75 | 1012.3 |
| 20260903150113 | 83 | 129 | 4.0 | 9.0 | 0.00 | 0.00 | 0.00 | 76 | 1012.3 |
| 20260903144606 | 83 | 168 | 3.0 | 10.0 | 0.00 | 0.00 | 0.00 | 77 | 1012.1 |
| 20260903143101 | 82 | 210 | 4.0 | 10.0 | 0.00 | 0.00 | 0.00 | 78 | 1012.0 |
| 20260903141556 | 81 | 182 | 4.0 | 9.0 | 0.00 | 0.00 | 0.00 | 80 | 1012.0 |
| 20260903140109 | 79 | 116 | 3.0 | 9.0 | 0.00 | 0.00 | 0.00 | 82 | 1012.0 |
| 20260903134609 | 78 | 146 | 2.0 | 8.0 | 0.00 | 0.00 | 0.00 | 83 | 1012.0 |
| 20260903133107 | 77 | 146 | 3.0 | 8.0 | 0.00 | 0.00 | 0.00 | 85 | 1012.1 |
| 20260903131556 | 75 | 106 | 3.0 | 6.0 | 0.00 | 0.00 | 0.00 | 86 | 1012.0 |
| 20260903124558 | 74 | 113 | 2.0 | 5.0 | 0.00 | 0.00 | 0.00 | 87 | 1012.0 |
| 20260903123056 | 74 | 117 | 2.0 | 4.0 | 0.00 | 0.00 | 0.00 | 87 | 1011.8 |
| 20260903121552 | 74 | 117 | 1.0 | 4.0 | 0.00 | 0.00 | 0.00 | 86 | 1011.7 |
| 20260903120104 | 74 | 144 | 2.0 | 6.0 | 0.00 | 0.00 | 0.00 | 86 | 1011.7 |
| 20260903114603 | 74 | 125 | 1.0 | 4.0 | 0.00 | 0.00 | 0.00 | 86 | 1011.7 |
| 20260903113053 | 74 | 101 | 2.0 | 7.0 | 0.00 | 0.00 | 0.00 | 86 | 1011.4 |
| 20260903111553 | 74 | 120 | 2.0 | 7.0 | 0.00 | 0.00 | 0.00 | 86 | 1011.4 |
| 20260903110058 | 74 | 116 | 2.0 | 7.0 | 0.00 | 0.00 | 0.00 | 85 | 1011.4 |
| 20260903104555 | 74 | 132 | 2.0 | 6.0 | 0.00 | 0.00 | 0.00 | 85 | 1011.3 |
| 20260903103105 | 75 | 117 | 3.0 | 7.0 | 0.00 | 0.00 | 0.00 | 84 | 1011.3 |
| 20260903101553 | 75 | 81 | 2.0 | 6.0 | 0.00 | 0.00 | 0.00 | 84 | 1011.4 |
| 20260903100053 | 75 | 67 | 3.0 | 6.0 | 0.00 | 0.00 | 0.00 | 83 | 1011.2 |
| 20260903094608 | 75 | 97 | 2.0 | 4.0 | 0.00 | 0.00 | 0.00 | 82 | 1011.3 |
| 20260903093118 | 75 | 131 | 2.0 | 4.0 | 0.00 | 0.00 | 0.00 | 83 | 1011.2 |
| 20260903091604 | 75 | 131 | 1.0 | 4.0 | 0.00 | 0.00 | 0.00 | 83 | 1011.3 |
| 20260903084550 | 75 | 0 | 0.0 | 3.0 | 0.00 | 0.00 | 0.00 | 82 | 1011.2 |
| 20260903083048 | 76 | 131 | 2.0 | 4.0 | 0.00 | 0.00 | 0.00 | 81 | 1011.4 |
| 20260903081559 | 76 | 131 | 2.0 | 3.0 | 0.00 | 0.00 | 0.00 | 82 | 1011.3 |
| 20260903080106 | 75 | 131 | 0.0 | 1.0 | 0.00 | 0.00 | 0.00 | 83 | 1011.3 |
| 20260903074625 | 75 | 0 | 0.0 | 0.0 | 0.00 | 0.00 | 0.00 | 82 | 1011.4 |
| 20260903073108 | 76 | 131 | 0.0 | 3.0 | 0.00 | 0.00 | 0.00 | 80 | 1011.4 |
| 20260903071603 | 76 | 131 | 1.0 | 3.0 | 0.00 | 0.00 | 0.00 | 80 | 1011.6 |
| 20260903070054 | 76 | 0 | 0.0 | 0.0 | 0.00 | 0.00 | 0.00 | 79 | 1011.6 |
| 20260903064557 | 77 | 0 | 1.0 | 3.0 | 0.00 | 0.00 | 0.00 | 77 | 1011.8 |
| 20260903063101 | 78 | 74 | 1.0 | 6.0 | 0.00 | 0.00 | 0.00 | 76 | 1012.1 |
| 20260903061608 | 78 | 122 | 2.0 | 4.0 | 0.00 | 0.00 | 0.00 | 75 | 1012.1 |
| 20260903060057 | 78 | 122 | 1.0 | 4.0 | 0.00 | 0.00 | 0.00 | 75 | 1012.3 |
| 20260903054554 | 79 | 111 | 1.0 | 7.0 | 0.00 | 0.00 | 0.00 | 73 | 1012.3 |
| 20260903053056 | 79 | 78 | 3.0 | 7.0 | 0.00 | 0.00 | 0.00 | 72 | 1012.4 |
| 20260903051555 | 80 | 134 | 2.0 | 5.0 | 0.00 | 0.00 | 0.00 | 72 | 1012.3 |
| 20260903050050 | 80 | 129 | 2.0 | 7.0 | 0.00 | 0.00 | 0.00 | 71 | 1012.3 |
| 20260903044559 | 80 | 105 | 2.0 | 5.0 | 0.00 | 0.00 | 0.00 | 71 | 1012.2 |
| 20260903043055 | 81 | 0 | 2.0 | 4.0 | 0.00 | 0.00 | 0.00 | 69 | 1012.0 |
| 20260903041552 | 82 | 132 | 2.0 | 8.0 | 0.00 | 0.00 | 0.00 | 68 | 1012.2 |
| 20260903040059 | 82 | 132 | 2.0 | 8.0 | 0.00 | 0.00 | 0.00 | 67 | 1012.2 |
| 20260903034600 | 83 | 142 | 2.0 | 6.0 | 0.00 | 0.00 | 0.00 | 67 | 1012.3 |
| 20260903033102 | 84 | 114 | 3.0 | 7.0 | 0.00 | 0.00 | 0.00 | 65 | 1012.1 |
| 20260903031633 | 84 | 132 | 3.0 | 10.0 | 0.00 | 0.00 | 0.00 | 65 | 1012.2 |
| 20260903030100 | 85 | 99 | 3.0 | 11.0 | 0.00 | 0.00 | 0.00 | 64 | 1012.0 |
| 20260903024556 | 85 | 118 | 2.0 | 6.0 | 0.00 | 0.00 | 0.00 | 63 | 1011.7 |
| 20260903023059 | 85 | 132 | 2.0 | 6.0 | 0.00 | 0.00 | 0.00 | 62 | 1011.5 |
| 20260903021607 | 86 | 110 | 2.0 | 5.0 | 0.00 | 0.00 | 0.00 | 61 | 1011.2 |
| 20260903020057 | 86 | 141 | 1.0 | 7.0 | 0.00 | 0.00 | 0.00 | 60 | 1011.0 |
| 20260903014557 | 87 | 151 | 4.0 | 10.0 | 0.00 | 0.00 | 0.00 | 59 | 1010.8 |
| 20260903013055 | 88 | 154 | 4.0 | 9.0 | 0.00 | 0.00 | 0.00 | 56 | 1010.7 |
| 20260903011601 | 89 | 168 | 5.0 | 12.0 | 0.00 | 0.00 | 0.00 | 54 | 1010.6 |
| 20260903010101 | 90 | 86 | 2.0 | 9.0 | 0.00 | 0.00 | 0.00 | 49 | 1010.5 |
| 20260903004557 | 92 | 96 | 7.0 | 15.0 | 0.00 | 0.00 | 0.00 | 45 | 1010.5 |
| 20260903003104 | 94 | 120 | 5.0 | 15.0 | 0.00 | 0.00 | 0.00 | 44 | 1010.3 |
| 20260903001604 | 96 | 151 | 5.0 | 14.0 | 0.00 | 0.00 | 0.00 | 42 | 1010.2 |
| 20260903000058 | 99 | 107 | 4.0 | 9.0 | 0.00 | 0.00 | 0.00 | 36 | 1010.1 |
| 20260902234602 | 100 | 127 | 2.0 | 10.0 | 0.00 | 0.00 | 0.00 | 34 | 1010.0 |
| 20260902233101 | 102 | 182 | 4.0 | 11.0 | 0.00 | 0.00 | 0.00 | 32 | 1010.0 |
| 20260902231610 | 102 | 142 | 3.0 | 9.0 | 0.00 | 0.00 | 0.00 | 32 | 1010.2 |
| 20260902230058 | 100 | 262 | 4.0 | 9.0 | 0.00 | 0.00 | 0.00 | 34 | 1010.1 |
| 20260902224604 | 103 | 166 | 6.0 | 9.0 | 0.00 | 0.00 | 0.00 | 32 | 1010.1 |
| 20260902223101 | 103 | 96 | 4.0 | 11.0 | 0.00 | 0.00 | 0.00 | 32 | 1010.2 |
| 20260902221558 | 102 | 77 | 4.0 | 10.0 | 0.00 | 0.00 | 0.00 | 32 | 1010.2 |
| 20260902214601 | 102 | 113 | 3.0 | 13.0 | 0.00 | 0.00 | 0.00 | 35 | 1010.3 |
| 20260902213106 | 100 | 292 | 3.0 | 11.0 | 0.00 | 0.00 | 0.00 | 36 | 1010.6 |
| 20260902211554 | 100 | 342 | 4.0 | 12.0 | 0.00 | 0.00 | 0.00 | 36 | 1010.6 |
| 20260902210100 | 102 | 360 | 4.0 | 11.0 | 0.00 | 0.00 | 0.00 | 35 | 1010.8 |
| 20260902204605 | 99 | 271 | 1.0 | 10.0 | 0.00 | 0.00 | 0.00 | 38 | 1010.8 |
| 20260902203117 | 101 | 37 | 4.0 | 9.0 | 0.00 | 0.00 | 0.00 | 36 | 1011.0 |
| 20260902201555 | 101 | 123 | 4.0 | 9.0 | 0.00 | 0.00 | 0.00 | 35 | 1011.2 |